Regional Weather Roundup
Issued by NWS Newport/Morehead, NC

Current Version | Previous Version | Graphics & Text | Print | Product List | Glossary Off
Versions: 1 2 3 4 5 6 7 8 9 10 11 12 13 14 15 16 17 18 19 20 21 22 23 24 25 26 27 28 29 30 31 32 33 34 35 36 37 38 39 40 41 42 43 44 45 46 47 48 49 50

000
ASUS42 KMHX 050112
RWRMHX
WEATHER ROUNDUP FOR EASTERN NORTH CAROLINA
NATIONAL WEATHER SERVICE NEWPORT/MOREHEAD CITY NC
900 PM EDT MON MAY 04 2015

NOTE: "FAIR" INDICATES FEW OR NO CLOUDS BELOW 12,000 FEET
WITH NO SIGNIFICANT WEATHER AND/OR OBSTRUCTIONS TO VISIBILITY

NCZ015>017-031-032-045>047-102-103-050200-
NORTH COAST

CITY           SKY/WX    TMP DP  RH WIND       PRES   REMARKS
EDENTON        CLEAR     69  56  62 S9        30.30R
ELIZABETH CITY CLEAR     69  53  56 S9        30.29R
KITTY HAWK     CLEAR     67  56  67 S5        30.31R
MANTEO         CLEAR     66  59  78 S9        30.32R

$$

NCZ045>047-081-094-103-104-050200-
CENTRAL COAST

CITY           SKY/WX    TMP DP  RH WIND       PRES   REMARKS
FRISCO         CLEAR     64  59  83 SW7       30.34R
SWANQUARTER      N/A     68 N/A N/A S12       30.30R

$$

NCZ095-097-098-100-101-050200-
SOUTHERN COAST

CITY           SKY/WX    TMP DP  RH WIND       PRES   REMARKS
BEAUFORT       CLEAR     66  58  75 S7        30.34R
CEDAR ISLAND     N/A     66 N/A N/A S6        30.36S
JACKSONVILLE   CLEAR     66  56  70 S5        30.32R
PINEY ISLAND   CLEAR    N/A N/A N/A S5        30.33R
WILMINGTON     CLEAR     66  55  67 SE5       30.32R


$$

NCZ011>013-027>030-043-044-078>080-089-090>093-098-050200-
COASTAL PLAIN

CITY           SKY/WX    TMP DP  RH WIND       PRES   REMARKS
AHOSKIE        CLEAR     64  53  67 S3        30.28R
CLINTON        CLEAR     70  56  63 S7        30.31R
ELIZABETHTOWN  CLEAR     69  55  60 SE5       30.31R
GOLDSBORO      CLEAR     70  54  56 S8        30.28R
GREENVILLE     CLEAR     70  54  56 S10       30.31R
HAVELOCK       CLEAR     67  56  67 S5        30.34R
KENANSVILLE    CLEAR     67  50  54 CALM      30.33R
KINSTON        CLEAR     70  52  52 S8        30.32R
NEW BERN       CLEAR     67  52  58 S5        30.33R
RICHLANDS      CLEAR     64  48  55 S3        30.33R
ROCKY MOUNT    CLEAR     72  53  51 S8        30.28R
WASHINGTON     CLEAR     69  52  55 S6        30.32R
WHITEVILLE     CLEAR     68  55  64 CALM      30.31R

$$

AMZ130-135-150-152-154-156-158-170-250-252-270-ANZ085-086-088-633-658-670-050200-
MARINE OBSERVATIONS

STATION/POSITION TIME  TEMP    WIND        PRES    WAVE   SWELL
                       AIR SEA DIR/SP/G            HT/PER HT/PER
                 (UTC) (F)     (DEG/KT/KT) (MB)    (FT/S) (FT/S)
CHESAPEAKE LIGHT 0100   62     190/ 26/ 27 1025.0
64 E VA BEACH    0050   65 62  190/ 12/ 14 1025.7    3/10   3/10
DUCK             0000   71 53  180/ 14/ 17 1024.4
2 E DUCK         0011      59                N/A     3/12   2/12
OREGON INLET     0000   68 70  170/ 10/ 13 1026.3
13E OREGON INLT  0100      60                N/A     2/11   2/11
HATTERAS CG      0000   69 68  200/  5/  8 1026.2
DIAMOND BUOY     0050   74 78  200/ 12/ 16 1027.2    3/10   3/10
CAPE LOOKOUT     0100   69     180/  7/  7 1027.0
BEAUFORT LAB     0000   68 67  170/  4/  5 1025.9
27 SE WRIGHTSVLE 0000   70     170/  8/  8   N/A
5 SE WRIGHTSVLE  0008   69 69  180/  4/  6 1026.6
225 S CAPE HAT   0050   69 70  100/ 16/ 17 1027.1    5/11   3/11
41 SE CHARLESTON 0050   73 74  110/ 16/ 17 1025.6    4/10   2/10

$$


USA.gov is the U.S. government's official web portal to all federal, state and local government web resources and services.